This is the latest recevied weather packets stored in our database for station/object W7OG-10. If no packets are shown the sender has not sent any weather packets the latest 10 day(s).
| Time | Temp. | Humidity | Pressure | Rain* | Wind** | Luminosity | Snow |
|---|---|---|---|---|---|---|---|
| 1777844316 | 30.56° C | 73% | 1010.1 hPa | 0 mm | - | - | - |
| 1777841316 | 30.56° C | 74% | 1010.7 hPa | 0 mm | - | - | - |
| 1777839497 | 30.56° C | 73% | 1010.8 hPa | 0 mm | - | - | - |
| 1777837096 | 30° C | 74% | 1011.3 hPa | 0 mm | - | - | - |
| 1777835297 | 29.44° C | 77% | 1011.5 hPa | 0 mm | - | - | - |
| 1777834696 | 29.44° C | 78% | 1011.6 hPa | 0 mm | - | - | - |
| 1777827497 | 28.89° C | 81% | 1011.4 hPa | 0 mm | - | - | - |
| 1777825098 | 27.78° C | 85% | 1010.7 hPa | 0 mm | - | - | - |
| 1777820897 | 27.22° C | 91% | 1013.8 hPa | 0 mm | - | - | - |
| 1777820299 | 26.67° C | 91% | 1013.9 hPa | 0 mm | - | - | - |
| 1777818497 | 26.11° C | 92% | 1014.1 hPa | 0 mm | - | - | - |
| 1777811298 | 25° C | 93% | 1014.2 hPa | 0 mm | - | - | - |
| 1777809498 | 24.44° C | 92% | 1014.1 hPa | 0 mm | - | - | - |
| 1777807099 | 24.44° C | 92% | 1014.1 hPa | 0 mm | - | - | - |
| 1777802918 | 25° C | 92% | 1014 hPa | 0 mm | - | - | - |
| 1777798699 | 25.56° C | 89% | 1013.9 hPa | 0 mm | - | - | - |
| 1777798099 | 25.56° C | 90% | 1013.9 hPa | 0 mm | - | - | - |
| 1777792699 | 26.11° C | 89% | 1013.6 hPa | 0 mm | - | - | - |
| 1777791520 | 26.11° C | 88% | 1013.5 hPa | 0 mm | - | - | - |
| 1777784900 | 26.67° C | 85% | 1013 hPa | 0 mm | - | - | - |
| 1777781300 | 27.78° C | 80% | 1012.6 hPa | 0 mm | - | - | - |
| 1777780700 | 27.78° C | 81% | 1012.4 hPa | 0 mm | - | - | - |
| 1777780141 | 27.78° C | 81% | 1012.3 hPa | 0 mm | - | - | - |
| 1777778300 | 27.78° C | 81% | 1011.9 hPa | 0 mm | - | - | - |
| 1777776501 | 27.78° C | 82% | 1011.7 hPa | 0 mm | - | - | - |
* Rain latest hour (hover to see other rain measurements)
** Current wind speed in m/s (hover to see current wind gust speed)